| time (UTC) | temp C | wind direction | speed KPH | gust KPH | rain 1hr cm | rain 24hr cm | rain mn cm | humidity % | barometer mb |
| 20260504195042 | 19 | 184 | 11.3 | 20.9 | 0.00 | 0.00 | 0.00 | 29 | 1011.8 |
| 20260504194600 | 19 | 169 | 12.9 | 27.4 | 0.00 | 0.00 | 0.00 | 28 | 1011.7 |
| 20260504194544 | 15 | 201 | 6.4 | 17.7 | 0.00 | 0.00 | 0.00 | 65 | 1016.1 |
| 20260504194043 | 18 | 102 | 12.9 | 30.6 | 0.00 | 0.00 | 0.00 | 28 | 1011.6 |
| 20260504193547 | 18 | 152 | 17.7 | 30.6 | 0.00 | 0.00 | 0.00 | 28 | 1011.7 |
| 20260504193109 | 18 | 170 | 12.9 | 27.4 | 0.00 | 0.00 | 0.00 | 30 | 1011.9 |
| 20260504193038 | 15 | 214 | 14.5 | 24.1 | 0.00 | 0.00 | 0.00 | 66 | 1016.1 |
| 20260504192543 | 18 | 132 | 14.5 | 29.0 | 0.00 | 0.00 | 0.00 | 31 | 1011.7 |
| 20260504192046 | 18 | 127 | 16.1 | 29.0 | 0.00 | 0.00 | 0.00 | 31 | 1011.7 |
| 20260504191559 | 18 | 143 | 11.3 | 30.6 | 0.00 | 0.00 | 0.00 | 30 | 1011.8 |
| 20260504191541 | 15 | 205 | 12.9 | 24.1 | 0.00 | 0.00 | 0.00 | 65 | 1016.1 |
| 20260504191048 | 18 | 170 | 19.3 | 30.6 | 0.00 | 0.00 | 0.00 | 31 | 1011.8 |
| 20260504190548 | 18 | 209 | 16.1 | 27.4 | 0.00 | 0.00 | 0.00 | 35 | 1011.7 |
| 20260504190110 | 18 | 166 | 11.3 | 25.7 | 0.00 | 0.00 | 0.00 | 35 | 1011.6 |
| 20260504190046 | 13 | 261 | 9.7 | 20.9 | 0.00 | 0.00 | 0.00 | 69 | 1016.4 |
| 20260504185549 | 18 | 141 | 16.1 | 24.1 | 0.00 | 0.00 | 0.00 | 35 | 1011.7 |
| 20260504185042 | 18 | 153 | 12.9 | 24.1 | 0.00 | 0.00 | 0.00 | 35 | 1011.8 |
| 20260504184649 | 18 | 158 | 12.9 | 24.1 | 0.00 | 0.00 | 0.00 | 35 | 1012.0 |
| 20260504184546 | 14 | 188 | 8.0 | 19.3 | 0.00 | 0.00 | 0.00 | 69 | 1016.1 |
| 20260504184043 | 17 | 179 | 14.5 | 24.1 | 0.00 | 0.00 | 0.00 | 36 | 1012.1 |
| 20260504183542 | 17 | 162 | 14.5 | 24.1 | 0.00 | 0.00 | 0.00 | 38 | 1012.1 |
| 20260504183054 | 17 | 203 | 16.1 | 22.5 | 0.00 | 0.00 | 0.00 | 37 | 1012.1 |
| 20260504183050 | 13 | 230 | 3.2 | 14.5 | 0.00 | 0.00 | 0.00 | 68 | 1016.3 |
| 20260504182543 | 17 | 186 | 12.9 | 22.5 | 0.00 | 0.00 | 0.00 | 37 | 1012.0 |
| 20260504182046 | 17 | 140 | 11.3 | 20.9 | 0.00 | 0.00 | 0.00 | 37 | 1012.2 |
| 20260504181559 | 17 | 181 | 12.9 | 20.9 | 0.00 | 0.00 | 0.00 | 38 | 1012.2 |
| 20260504181552 | 13 | 219 | 8.0 | 19.3 | 0.00 | 0.00 | 0.00 | 70 | 1016.5 |
| 20260504181049 | 17 | 148 | 12.9 | 19.3 | 0.00 | 0.00 | 0.00 | 40 | 1012.0 |
| 20260504180547 | 17 | 179 | 12.9 | 19.3 | 0.00 | 0.00 | 0.00 | 40 | 1012.0 |
| 20260504180059 | 17 | 178 | 9.7 | 16.1 | 0.00 | 0.00 | 0.00 | 41 | 1011.9 |
| 20260504180047 | 13 | 267 | 8.0 | 17.7 | 0.00 | 0.00 | 0.00 | 70 | 1016.4 |
| 20260504175544 | 17 | 161 | 11.3 | 17.7 | 0.00 | 0.00 | 0.00 | 41 | 1012.1 |
| 20260504175046 | 16 | 146 | 11.3 | 22.5 | 0.00 | 0.00 | 0.00 | 41 | 1012.0 |
| 20260504174551 | 17 | 120 | 9.7 | 22.5 | 0.00 | 0.00 | 0.00 | 42 | 1012.0 |
| 20260504174050 | 16 | 191 | 9.7 | 19.3 | 0.00 | 0.00 | 0.00 | 42 | 1011.9 |
| 20260504173542 | 16 | 176 | 9.7 | 19.3 | 0.00 | 0.00 | 0.00 | 42 | 1011.8 |
| 20260504173056 | 16 | 171 | 11.3 | 17.7 | 0.00 | 0.00 | 0.00 | 43 | 1011.9 |
| 20260504173049 | 13 | 225 | 9.7 | 22.5 | 0.00 | 0.00 | 0.00 | 68 | 1016.1 |
| 20260504172542 | 16 | 178 | 6.4 | 20.9 | 0.00 | 0.00 | 0.00 | 44 | 1011.7 |
| 20260504172042 | 15 | 192 | 9.7 | 20.9 | 0.00 | 0.00 | 0.00 | 44 | 1011.6 |
| 20260504171608 | 15 | 159 | 9.7 | 19.3 | 0.00 | 0.00 | 0.00 | 45 | 1011.7 |
| 20260504171548 | 13 | 262 | 8.0 | 20.9 | 0.00 | 0.00 | 0.00 | 68 | 1015.9 |
| 20260504171042 | 15 | 152 | 11.3 | 17.7 | 0.00 | 0.00 | 0.00 | 44 | 1011.7 |
| 20260504170547 | 15 | 194 | 11.3 | 19.3 | 0.00 | 0.00 | 0.00 | 45 | 1011.7 |
| 20260504151043 | 13 | 217 | 12.9 | 19.3 | 0.00 | 0.00 | 0.00 | 47 | 1010.8 |
| 20260504150548 | 13 | 191 | 12.9 | 17.7 | 0.00 | 0.00 | 0.00 | 46 | 1010.8 |
| 20260504141042 | 12 | 101 | 1.6 | 3.2 | 0.00 | 0.00 | 0.00 | 48 | 1010.4 |
| 20260504140619 | 12 | 0 | 1.6 | 3.2 | 0.00 | 0.00 | 0.00 | 50 | 1010.4 |
| 20260504140106 | 11 | 0 | 0.0 | 1.6 | 0.00 | 0.00 | 0.00 | 51 | 1010.4 |
| 20260504130546 | 11 | 328 | 1.6 | 4.8 | 0.00 | 0.00 | 0.00 | 53 | 1009.7 |
| 20260504120110 | 11 | 326 | 1.6 | 6.4 | 0.00 | 0.00 | 0.00 | 51 | 1009.5 |
| 20260504110547 | 12 | 319 | 8.0 | 12.9 | 0.00 | 0.00 | 0.00 | 50 | 1009.4 |
| 20260504110107 | 12 | 328 | 6.4 | 11.3 | 0.00 | 0.00 | 0.00 | 50 | 1009.4 |
| 20260504100549 | 13 | 300 | 4.8 | 8.0 | 0.00 | 0.00 | 0.00 | 48 | 1009.1 |
| 20260504081553 | 16 | 49 | 3.2 | 8.0 | 0.00 | 0.00 | 0.00 | 40 | 1009.4 |
| 20260504081550 | 11 | 0 | 0.0 | 3.2 | 0.00 | 0.03 | 0.00 | 87 | 1015.8 |
| 20260504081042 | 16 | 54 | 3.2 | 6.4 | 0.00 | 0.00 | 0.00 | 38 | 1009.4 |
| 20260504080542 | 17 | 65 | 0.0 | 9.7 | 0.00 | 0.00 | 0.00 | 36 | 1009.6 |
| 20260504060218 | 18 | 193 | 4.8 | 12.9 | 0.00 | 0.00 | 0.00 | 32 | 1008.7 |
| 20260504050637 | 20 | 215 | 6.4 | 11.3 | 0.00 | 0.00 | 0.00 | 31 | 1008.9 |
| 20260504045548 | 20 | 208 | 8.0 | 12.9 | 0.00 | 0.00 | 0.00 | 30 | 1008.9 |
| 20260504045047 | 21 | 211 | 8.0 | 12.9 | 0.00 | 0.00 | 0.00 | 30 | 1008.8 |
| 20260504044552 | 21 | 199 | 8.0 | 12.9 | 0.00 | 0.00 | 0.00 | 30 | 1008.9 |
| 20260504044547 | 12 | 0 | 1.6 | 4.8 | 0.00 | 0.03 | 0.03 | 80 | 1015.5 |
| 20260504044043 | 21 | 235 | 8.0 | 14.5 | 0.00 | 0.00 | 0.00 | 30 | 1008.9 |
| 20260504043543 | 21 | 212 | 6.4 | 14.5 | 0.00 | 0.00 | 0.00 | 30 | 1008.8 |
| 20260504043053 | 21 | 219 | 8.0 | 16.1 | 0.00 | 0.00 | 0.00 | 30 | 1008.7 |
| 20260504043051 | 12 | 223 | 6.4 | 11.3 | 0.00 | 0.03 | 0.03 | 79 | 1015.3 |
| 20260504042542 | 21 | 215 | 9.7 | 17.7 | 0.00 | 0.00 | 0.00 | 29 | 1008.8 |
| 20260504042042 | 21 | 194 | 9.7 | 19.3 | 0.00 | 0.00 | 0.00 | 29 | 1008.7 |
| 20260504041547 | 21 | 188 | 12.9 | 19.3 | 0.00 | 0.00 | 0.00 | 29 | 1008.7 |
| 20260504041046 | 21 | 214 | 9.7 | 20.9 | 0.00 | 0.00 | 0.00 | 29 | 1008.7 |
| 20260504040544 | 21 | 238 | 14.5 | 20.9 | 0.00 | 0.00 | 0.00 | 29 | 1008.7 |
| 20260504040156 | 22 | 213 | 12.9 | 29.0 | 0.00 | 0.00 | 0.00 | 29 | 1008.9 |
| 20260504040058 | 22 | 213 | 12.9 | 29.0 | 0.00 | 0.00 | 0.00 | 29 | 1008.9 |
| 20260504040050 | 12 | 205 | 3.2 | 14.5 | 0.00 | 0.03 | 0.03 | 80 | 1015.2 |
| 20260504035545 | 22 | 231 | 12.9 | 29.0 | 0.00 | 0.00 | 0.00 | 28 | 1008.9 |
| 20260504035047 | 22 | 217 | 14.5 | 22.5 | 0.00 | 0.00 | 0.00 | 28 | 1008.7 |
| 20260504034549 | 12 | 173 | 4.8 | 22.5 | 0.00 | 0.03 | 0.03 | 80 | 1015.4 |
| 20260504034050 | 22 | 205 | 9.7 | 25.7 | 0.00 | 0.00 | 0.00 | 25 | 1008.5 |
| 20260504033543 | 22 | 215 | 16.1 | 25.7 | 0.00 | 0.00 | 0.00 | 24 | 1008.4 |
| 20260504033054 | 22 | 217 | 14.5 | 25.7 | 0.00 | 0.00 | 0.00 | 24 | 1008.3 |
| 20260504033047 | 12 | 192 | 12.9 | 20.9 | 0.00 | 0.03 | 0.03 | 80 | 1015.0 |
| 20260504032546 | 22 | 160 | 12.9 | 22.5 | 0.00 | 0.00 | 0.00 | 23 | 1008.2 |
| 20260504032046 | 22 | 197 | 12.9 | 22.5 | 0.00 | 0.00 | 0.00 | 22 | 1008.3 |
| 20260504031601 | 22 | 214 | 12.9 | 22.5 | 0.00 | 0.00 | 0.00 | 21 | 1008.2 |
| 20260504031544 | 12 | 252 | 16.1 | 27.4 | 0.00 | 0.03 | 0.03 | 79 | 1014.6 |
| 20260504031045 | 23 | 181 | 14.5 | 25.7 | 0.00 | 0.00 | 0.00 | 21 | 1008.2 |
| 20260504030551 | 23 | 221 | 16.1 | 25.7 | 0.00 | 0.00 | 0.00 | 21 | 1008.2 |
| 20260504030050 | 23 | 191 | 14.5 | 25.7 | 0.00 | 0.00 | 0.00 | 21 | 1008.0 |
| 20260504030047 | 12 | 176 | 11.3 | 25.7 | 0.00 | 0.03 | 0.03 | 78 | 1014.5 |
| 20260504025542 | 23 | 178 | 14.5 | 22.5 | 0.00 | 0.00 | 0.00 | 20 | 1008.0 |
| 20260504025046 | 23 | 206 | 16.1 | 22.5 | 0.00 | 0.00 | 0.00 | 20 | 1008.1 |
| 20260504024602 | 12 | 236 | 9.7 | 22.5 | 0.00 | 0.03 | 0.03 | 76 | 1014.4 |
| 20260504024558 | 23 | 183 | 14.5 | 22.5 | 0.00 | 0.00 | 0.00 | 19 | 1008.1 |
| 20260504024054 | 23 | 208 | 14.5 | 22.5 | 0.00 | 0.00 | 0.00 | 19 | 1008.0 |
| 20260504023549 | 23 | 184 | 12.9 | 30.6 | 0.00 | 0.00 | 0.00 | 19 | 1008.0 |
| 20260504023050 | 23 | 186 | 17.7 | 30.6 | 0.00 | 0.00 | 0.00 | 19 | 1008.0 |
| 20260504023040 | 13 | 225 | 12.9 | 24.1 | 0.00 | 0.03 | 0.03 | 73 | 1014.3 |
| 20260504022546 | 23 | 178 | 12.9 | 25.7 | 0.00 | 0.00 | 0.00 | 19 | 1007.9 |
| 20260504022047 | 23 | 174 | 16.1 | 25.7 | 0.00 | 0.00 | 0.00 | 18 | 1008.0 |
| 20260504021555 | 23 | 180 | 14.5 | 29.0 | 0.00 | 0.00 | 0.00 | 18 | 1008.1 |
| 20260504021547 | 13 | 216 | 11.3 | 24.1 | 0.00 | 0.03 | 0.03 | 71 | 1014.3 |
| 20260504021047 | 23 | 197 | 17.7 | 32.2 | 0.00 | 0.00 | 0.00 | 18 | 1008.2 |
| 20260504020542 | 24 | 193 | 17.7 | 32.2 | 0.00 | 0.00 | 0.00 | 18 | 1008.2 |
| 20260504020052 | 24 | 183 | 20.9 | 33.8 | 0.00 | 0.00 | 0.00 | 18 | 1008.1 |
| 20260504020047 | 13 | 197 | 12.9 | 25.7 | 0.00 | 0.03 | 0.03 | 70 | 1014.0 |
| 20260504015551 | 25 | 201 | 24.1 | 33.8 | 0.00 | 0.00 | 0.00 | 17 | 1008.0 |
| 20260504015043 | 25 | 208 | 22.5 | 32.2 | 0.00 | 0.00 | 0.00 | 17 | 1008.0 |
| 20260504014554 | 25 | 186 | 19.3 | 32.2 | 0.00 | 0.00 | 0.00 | 17 | 1008.1 |
| 20260504014548 | 14 | 224 | 16.1 | 27.4 | 0.00 | 0.03 | 0.03 | 69 | 1013.7 |
| 20260504014046 | 25 | 197 | 19.3 | 32.2 | 0.00 | 0.00 | 0.00 | 16 | 1008.1 |
| 20260504013547 | 25 | 186 | 22.5 | 32.2 | 0.00 | 0.00 | 0.00 | 16 | 1008.2 |
| 20260504013058 | 25 | 205 | 19.3 | 33.8 | 0.00 | 0.00 | 0.00 | 16 | 1008.0 |
| 20260504013045 | 14 | 259 | 17.7 | 29.0 | 0.00 | 0.03 | 0.03 | 70 | 1013.6 |
| 20260504012544 | 26 | 205 | 19.3 | 33.8 | 0.00 | 0.00 | 0.00 | 16 | 1008.0 |
| 20260504012045 | 26 | 188 | 20.9 | 33.8 | 0.00 | 0.00 | 0.00 | 16 | 1008.1 |
| 20260504011552 | 26 | 195 | 17.7 | 30.6 | 0.00 | 0.00 | 0.00 | 16 | 1008.1 |
| 20260504011549 | 15 | 220 | 14.5 | 27.4 | 0.00 | 0.03 | 0.03 | 69 | 1013.5 |
| 20260504011047 | 26 | 155 | 20.9 | 32.2 | 0.00 | 0.00 | 0.00 | 16 | 1008.2 |
| 20260504010544 | 26 | 184 | 20.9 | 33.8 | 0.00 | 0.00 | 0.00 | 15 | 1008.0 |
| 20260504010057 | 26 | 186 | 19.3 | 33.8 | 0.00 | 0.00 | 0.00 | 15 | 1008.0 |
| 20260504010055 | 15 | 244 | 17.7 | 32.2 | 0.00 | 0.03 | 0.03 | 68 | 1013.3 |
| 20260504005548 | 26 | 203 | 19.3 | 35.4 | 0.00 | 0.00 | 0.00 | 15 | 1008.0 |
| 20260504005043 | 26 | 178 | 25.7 | 35.4 | 0.00 | 0.00 | 0.00 | 15 | 1008.1 |
| 20260504004603 | 26 | 201 | 19.3 | 33.8 | 0.00 | 0.00 | 0.00 | 15 | 1008.1 |
| 20260504004553 | 16 | 234 | 16.1 | 30.6 | 0.00 | 0.03 | 0.03 | 67 | 1013.0 |
| 20260504004050 | 27 | 176 | 17.7 | 37.0 | 0.00 | 0.00 | 0.00 | 15 | 1008.2 |
| 20260504003547 | 26 | 180 | 19.3 | 37.0 | 0.00 | 0.00 | 0.00 | 15 | 1008.2 |
| 20260504003054 | 27 | 197 | 20.9 | 37.0 | 0.00 | 0.00 | 0.00 | 15 | 1008.2 |
| 20260504002554 | 27 | 159 | 20.9 | 33.8 | 0.00 | 0.00 | 0.00 | 15 | 1008.2 |
| 20260504002045 | 27 | 186 | 22.5 | 35.4 | 0.00 | 0.00 | 0.00 | 14 | 1008.2 |
| 20260504001557 | 27 | 190 | 22.5 | 37.0 | 0.00 | 0.00 | 0.00 | 15 | 1008.2 |
| 20260504001546 | 17 | 196 | 14.5 | 24.1 | 0.00 | 0.03 | 0.03 | 63 | 1012.4 |
| 20260504001043 | 27 | 144 | 24.1 | 37.0 | 0.00 | 0.00 | 0.00 | 15 | 1008.2 |
| 20260504000548 | 27 | 199 | 24.1 | 38.6 | 0.00 | 0.00 | 0.00 | 14 | 1008.2 |
| 20260504000112 | 17 | 256 | 11.3 | 22.5 | 0.00 | 0.03 | 0.03 | 64 | 1012.5 |
| 20260503235550 | 27 | 204 | 24.1 | 45.1 | 0.00 | 0.00 | 0.00 | 15 | 1008.1 |
| 20260503235107 | 27 | 173 | 22.5 | 45.1 | 0.00 | 0.00 | 0.00 | 15 | 1008.2 |
| 20260503234554 | 27 | 226 | 24.1 | 45.1 | 0.00 | 0.00 | 0.00 | 15 | 1008.3 |
| 20260503234051 | 27 | 196 | 17.7 | 43.5 | 0.00 | 0.00 | 0.00 | 15 | 1008.3 |
| 20260503233555 | 27 | 167 | 24.1 | 43.5 | 0.00 | 0.00 | 0.00 | 15 | 1008.2 |
| 20260503233055 | 27 | 151 | 20.9 | 41.8 | 0.00 | 0.00 | 0.00 | 15 | 1008.1 |
| 20260503233049 | 18 | 0 | 11.3 | 22.5 | 0.00 | 0.03 | 0.03 | 65 | 1012.7 |
| 20260503232550 | 27 | 160 | 20.9 | 41.8 | 0.00 | 0.00 | 0.00 | 14 | 1008.0 |
| 20260503232056 | 27 | 150 | 19.3 | 37.0 | 0.00 | 0.00 | 0.00 | 15 | 1008.1 |
| 20260503231555 | 28 | 190 | 22.5 | 37.0 | 0.00 | 0.00 | 0.00 | 14 | 1008.2 |
| 20260503231548 | 17 | 202 | 14.5 | 25.7 | 0.00 | 0.03 | 0.03 | 67 | 1012.9 |
| 20260503231055 | 28 | 192 | 16.1 | 37.0 | 0.00 | 0.00 | 0.00 | 14 | 1008.2 |
| 20260503230551 | 28 | 156 | 16.1 | 33.8 | 0.00 | 0.00 | 0.00 | 14 | 1008.1 |
| 20260503230056 | 28 | 136 | 16.1 | 33.8 | 0.00 | 0.00 | 0.00 | 14 | 1008.2 |
| 20260503230049 | 17 | 153 | 11.3 | 20.9 | 0.00 | 0.03 | 0.03 | 68 | 1013.1 |
| 20260503225554 | 27 | 179 | 22.5 | 33.8 | 0.00 | 0.00 | 0.00 | 13 | 1008.3 |
| 20260503225103 | 27 | 179 | 19.3 | 35.4 | 0.00 | 0.00 | 0.00 | 13 | 1008.5 |
| 20260503224551 | 18 | 211 | 9.7 | 20.9 | 0.00 | 0.03 | 0.03 | 65 | 1013.3 |
| 20260503224549 | 28 | 183 | 22.5 | 37.0 | 0.00 | 0.00 | 0.00 | 14 | 1008.6 |
| 20260503224051 | 28 | 184 | 24.1 | 37.0 | 0.00 | 0.00 | 0.00 | 14 | 1008.5 |
| 20260503223551 | 28 | 127 | 19.3 | 43.5 | 0.00 | 0.00 | 0.00 | 14 | 1008.6 |
| 20260503223058 | 28 | 153 | 24.1 | 43.5 | 0.00 | 0.00 | 0.00 | 14 | 1008.7 |
| 20260503223053 | 17 | 286 | 9.7 | 20.9 | 0.00 | 0.03 | 0.03 | 67 | 1013.4 |
| 20260503222550 | 27 | 204 | 22.5 | 37.0 | 0.00 | 0.00 | 0.00 | 14 | 1008.6 |
| 20260503222053 | 27 | 193 | 19.3 | 37.0 | 0.00 | 0.00 | 0.00 | 15 | 1008.7 |
| 20260503221556 | 28 | 184 | 19.3 | 38.6 | 0.00 | 0.00 | 0.00 | 15 | 1008.8 |
| 20260503221554 | 16 | 224 | 8.0 | 19.3 | 0.00 | 0.03 | 0.03 | 71 | 1013.5 |
| 20260503221056 | 27 | 184 | 24.1 | 40.2 | 0.00 | 0.00 | 0.00 | 15 | 1008.9 |
| 20260503220616 | 27 | 143 | 20.9 | 40.2 | 0.00 | 0.00 | 0.00 | 15 | 1008.9 |
| 20260503220051 | 17 | 255 | 6.4 | 17.7 | 0.00 | 0.03 | 0.03 | 68 | 1013.7 |
| 20260503215551 | 27 | 144 | 17.7 | 38.6 | 0.00 | 0.00 | 0.00 | 15 | 1009.1 |
| 20260503215121 | 27 | 152 | 22.5 | 38.6 | 0.00 | 0.00 | 0.00 | 15 | 1009.2 |
| 20260503214551 | 28 | 202 | 25.7 | 38.6 | 0.00 | 0.00 | 0.00 | 14 | 1009.2 |
| 20260503214546 | 16 | 284 | 14.5 | 20.9 | 0.00 | 0.03 | 0.03 | 72 | 1013.9 |
| 20260503214050 | 28 | 139 | 11.3 | 27.4 | 0.00 | 0.00 | 0.00 | 14 | 1009.2 |
| 20260503213550 | 27 | 110 | 19.3 | 32.2 | 0.00 | 0.00 | 0.00 | 15 | 1009.3 |
| 20260503213057 | 28 | 78 | 19.3 | 32.2 | 0.00 | 0.00 | 0.00 | 14 | 1009.4 |
| 20260503213046 | 15 | 281 | 6.4 | 14.5 | 0.00 | 0.03 | 0.03 | 78 | 1014.0 |
| 20260503212603 | 28 | 120 | 19.3 | 37.0 | 0.00 | 0.00 | 0.00 | 13 | 1009.5 |
| 20260503212051 | 28 | 147 | 14.5 | 37.0 | 0.00 | 0.00 | 0.00 | 14 | 1009.6 |
| 20260503211604 | 27 | 150 | 24.1 | 37.0 | 0.00 | 0.00 | 0.00 | 14 | 1009.7 |
| 20260503211544 | 15 | 244 | 8.0 | 17.7 | 0.00 | 0.03 | 0.03 | 79 | 1014.2 |
| 20260503211053 | 28 | 165 | 24.1 | 37.0 | 0.00 | 0.00 | 0.00 | 14 | 1009.6 |
| 20260503210551 | 28 | 137 | 22.5 | 37.0 | 0.00 | 0.00 | 0.00 | 14 | 1009.7 |
| 20260503210054 | 28 | 113 | 19.3 | 29.0 | 0.00 | 0.00 | 0.00 | 14 | 1009.7 |
| 20260503210050 | 14 | 206 | 8.0 | 19.3 | 0.00 | 0.03 | 0.03 | 82 | 1014.1 |
| 20260503205546 | 28 | 114 | 19.3 | 30.6 | 0.00 | 0.00 | 0.00 | 15 | 1009.7 |
| 20260503205046 | 28 | 127 | 17.7 | 30.6 | 0.00 | 0.00 | 0.00 | 15 | 1009.8 |
| 20260503204554 | 28 | 158 | 14.5 | 41.8 | 0.00 | 0.00 | 0.00 | 15 | 1009.9 |
| 20260503204545 | 14 | 234 | 9.7 | 17.7 | 0.00 | 0.03 | 0.03 | 84 | 1014.2 |
| 20260503204058 | 28 | 152 | 17.7 | 41.8 | 0.00 | 0.00 | 0.00 | 15 | 1010.0 |
| 20260503203542 | 28 | 143 | 22.5 | 38.6 | 0.00 | 0.00 | 0.00 | 14 | 1010.0 |
| 20260503203105 | 14 | 243 | 4.8 | 14.5 | 0.00 | 0.03 | 0.03 | 86 | 1014.4 |
| 20260503203052 | 28 | 135 | 20.9 | 37.0 | 0.00 | 0.00 | 0.00 | 15 | 1010.0 |
| 20260503202545 | 28 | 105 | 14.5 | 32.2 | 0.00 | 0.00 | 0.00 | 16 | 1010.0 |
| 20260503202045 | 28 | 127 | 22.5 | 32.2 | 0.00 | 0.00 | 0.00 | 16 | 1010.1 |
| 20260503201548 | 27 | 155 | 16.1 | 38.6 | 0.00 | 0.00 | 0.00 | 15 | 1010.1 |
| 20260503201546 | 13 | 288 | 4.8 | 12.9 | 0.00 | 0.03 | 0.03 | 88 | 1014.3 |
| 20260503201047 | 28 | 158 | 14.5 | 38.6 | 0.00 | 0.00 | 0.00 | 15 | 1010.4 |
| 20260503200548 | 28 | 153 | 22.5 | 38.6 | 0.00 | 0.00 | 0.00 | 16 | 1010.5 |
| 20260503200054 | 28 | 138 | 12.9 | 33.8 | 0.00 | 0.00 | 0.00 | 16 | 1010.6 |
| 20260503200050 | 13 | 288 | 6.4 | 16.1 | 0.00 | 0.03 | 0.03 | 91 | 1014.4 |
| 20260503195650 | 27 | 113 | 17.7 | 56.3 | 0.00 | 0.00 | 0.00 | 17 | 1010.6 |